Dinard-Pleurtuit-Saint-Malo Airport

Jump to: basic info | weather | frequencies | runways | comments

Related pages: nearby airports | nearby navaids | notams | map

Basic information (top)

Codes: DNR LFRD
Location: lon 48.587700, lat -2.079960, elev 219 ft / 67 m msl
Status: medium_airport
Scheduled airline service: yes
Links: Wikipedia Mobile

Weather (top)

Current conditions (rec'd 2014/09/30 19:30Z):

LFRD 301930Z AUTO 20004KT 9999 FEW038 BKN054 17/13 Q1025

Airport forecast (rec'd 2014/09/30 18:15Z):

TAF LFRD 301700Z 3018/0118 22007KT 9999 SCT040 
      BECMG 3021/3024 3000 BR 
      BECMG 0100/0102 1500 BR BKN003 PROB30 
      TEMPO 0102/0107 0500 FG 
      BECMG 0107/0109 9999 NSW BKN010 
      BECMG 0109/0111 BKN020 
      TEMPO 0111/0116 5000 SHRA BKN015TCU 
      BECMG 0113/0115 32010KT

Frequencies (top)

Verify before use: may be inaccurate or out of date.

ATIS: 124.575 MHz (DINARD ATIS)
TWR: 120.15 MHz (DINARD TWR)

Runways (top)

12/30: 4,708 x 148 ft (1,435 x 45 m) — paved — not lighted — threshold 30 displaced 476 ft (145 m)

17/35: 7,218 x 148 ft (2,200 x 45 m) — paved — lighted

Latest comments (top)

No comments yet for Dinard-Pleurtuit-Saint-Malo Airport

More... (top)

See also NOTAMs and nearby airports and navaids, or visit the Dinard-Pleurtuit-Saint-Malo Airport page at the main OurAirports website..